[[{"header":{"parameterUnit":"m.s-1","parameterCategory":1,"la1":30.2991,"la2":30.254,"lo1":-89.0895,"lo2":-89.0444,"dy":0.0017,"dx":0.0017,"nx":28,"ny":28,"refTime":"2023-11-01T09:00:00:Z","depth":0,"parameterNumber":2,"parameterNumberName":"U-component_of_WINDS"},"data":[0,0,0,0,0,0,0,0,0,0,0,0,0,0,0,0,0,0,0,0,0,0,0,0,0,0,0,0,0,0,0,0,0,0,0,0,0,0,0,0,0,0,0,0,0,0,0,0,0,0,0,0,0,0,0,0,0,0,-2.7879,-2.7879,0,-2.7933,-2.7934,-2.7935,-2.7888,-2.7886,-2.7884,-2.7882,-2.7937,-2.7941,-2.7944,0,0,0,0,0,0,0,0,0,0,0,0,0,-2.7732,-2.7735,-2.7879,-2.7879,-2.788,-2.7933,-2.7934,-2.7935,-2.7888,-2.7886,-2.7883,-2.7881,-2.7936,-2.794,-2.7944,0,0,0,0,0,0,0,0,0,0,0,0,0,-2.7792,-2.7736,-2.7878,-2.7863,-2.7862,-2.7933,-2.7934,-2.7935,-2.7888,-2.7886,-2.7883,-2.788,-2.7935,-2.794,-2.7945,-2.8034,0,0,-2.796,-2.7962,0,0,0,0,0,0,0,0,-2.7789,-2.7798,-2.7865,-2.7864,-2.7863,-2.7901,-2.7903,-2.7968,-2.7889,-2.7879,-2.7882,-2.7878,-2.7928,-2.7933,-2.795,-2.8036,-2.8039,-2.796,-2.7963,-2.7965,-2.7967,0,0,0,0,0,0,0,-2.7785,-2.7795,-2.79,-2.7866,-2.7865,-2.7853,-2.7858,-2.7915,-2.7919,-2.7879,-2.7876,-2.7883,-2.7927,-2.7945,-2.7951,-2.8039,-2.796,-2.7964,-2.7968,-2.7969,-2.8202,-2.8205,0,0,0,0,0,0,-2.7782,-2.7792,-2.7898,-2.7902,-2.7818,-2.7858,-2.7864,-2.7892,-2.7918,-2.7919,-2.7886,-2.7881,-2.7938,-2.7945,-2.7952,-2.8059,-2.7965,-2.797,-2.7973,-2.8199,-2.8202,-2.8206,0,0,0,0,0,0,-2.7779,-2.7792,-2.7896,-2.7846,-2.7858,-2.7864,-2.7895,-2.7894,-2.7913,-2.7923,-2.7923,-2.7904,-2.7936,-2.7945,-2.8014,-2.806,-2.7972,-2.7977,-2.8195,-2.82,-2.8204,-2.8272,0,0,0,0,0,0,-2.7775,-2.7791,-2.7826,-2.7847,-2.7861,-2.7958,-2.7898,-2.7898,-2.7921,-2.7916,-2.794,-2.7941,-2.7934,-2.8007,-2.8019,-2.8065,-2.7981,-2.8191,-2.8197,-2.8203,-2.8266,-2.8278,-2.8289,0,0,0,0,0,-2.777,-2.7842,-2.7828,-2.7841,-2.7904,-2.796,-2.7968,-2.7959,-2.7925,-2.796,-2.7966,-2.794,-2.8053,-2.8014,-2.8027,-2.8076,-2.8188,-2.8195,-2.8202,-2.826,-2.8276,-2.8289,0,0,0,0,0,0,-2.7826,-2.7845,-2.7829,-2.791,-2.7934,-2.7952,-2.7995,-2.7976,-2.801,-2.8003,-2.799,-2.7996,-2.8068,-2.8078,-2.8035,-2.8163,-2.8115,-2.8125,-2.8154,-2.8169,-2.8181,-2.8178,-2.7985,0,0,0,0,0,-2.7848,-2.7892,-2.7906,-2.7976,-2.7989,-2.799,-2.8014,-2.8005,-2.803,-2.8039,-2.8051,-2.8075,-2.8115,-2.8143,-2.818,-2.8266,-2.8271,-2.8306,-2.8318,-2.8328,-2.8337,-2.8383,-2.8399,-2.823,-2.8229,-2.8229,0,0,-2.7893,-2.7909,-2.7938,-2.7988,-2.8006,-2.8052,-2.7999,-2.805,-2.8084,-2.8047,-2.8113,-2.8122,-2.8148,-2.8225,-2.826,-2.8236,-2.8385,-2.8337,-2.8344,-2.8349,-2.8392,-2.8408,-2.8423,-2.8234,-2.8234,-2.8233,0,0,-2.8,-2.8016,-2.8077,-2.8096,-2.8123,-2.8123,-2.8137,-2.8159,-2.8163,-2.8229,-2.8202,-2.8242,-2.8312,-2.8332,-2.8351,-2.8464,-2.8442,-2.8477,-2.854,-2.8585,-2.8598,-2.861,-2.8651,-2.8666,-2.8486,-2.8486,-2.8486,0,-2.8054,-2.8122,-2.8111,-2.8164,-2.8187,-2.8155,-2.8216,-2.8234,-2.8273,-2.8289,-2.8261,-2.8349,-2.8364,-2.8446,-2.8474,-2.849,-2.8506,-2.8475,-2.8597,-2.8609,-2.862,-2.8659,-2.8675,-2.849,-2.849,-2.8489,-2.8489,0,-2.8187,-2.8235,-2.8281,-2.8319,-2.8346,-2.8403,-2.84,-2.8429,-2.8417,-2.842,-2.8487,-2.8504,-2.8545,-2.8563,-2.8552,-2.8644,-2.8628,-2.8599,-2.855,-2.8641,-2.8677,-2.8692,-2.8496,-2.8495,-2.8493,-2.8492,0,0,-2.8332,-2.8362,-2.838,-2.8396,-2.8424,-2.846,-2.8515,-2.8555,-2.8581,-2.8608,-2.8654,-2.8714,-2.8687,-2.8709,-2.8699,-2.8739,-2.8829,-2.8705,-2.8705,-2.8728,-2.8931,-2.8954,-2.8971,-2.8813,-2.8816,-2.8818,-2.8929,0,-2.8441,-2.8538,-2.8528,-2.862,-2.8664,-2.8634,-2.8682,-2.8704,-2.8708,-2.8745,-2.8749,-2.8792,-2.8753,-2.8766,-2.8804,-2.881,-2.8869,-2.8801,-2.8856,-2.8858,-2.8852,-2.899,-2.9015,-2.9119,-2.8943,-2.8946,-2.8947,0,-2.8581,-2.8614,-2.871,-2.873,-2.8749,-2.8792,-2.8828,-2.8864,-2.8888,-2.8888,-2.8912,-2.8895,-2.895,-2.8899,-2.8975,-2.8929,-2.895,-2.8956,-2.896,-2.8966,-2.891,-2.9001,-2.9151,-2.9168,-2.897,-2.8968,-2.8966,0,-2.8679,-2.8746,-2.8813,-2.8828,-2.8853,-2.8884,-2.8896,-2.8917,-2.8941,-2.8972,-2.8988,-2.9025,-2.9046,-2.9074,-2.9068,-2.9031,-2.9145,-2.9093,-2.9147,-2.9147,-2.9174,-2.9173,-2.9331,-2.9186,-2.9185,-2.9185,-2.9185,0,-2.8803,-2.8863,-2.8857,-2.8898,-2.8965,-2.8953,-2.9019,-2.9026,-2.9045,-2.9087,-2.9062,-2.9101,-2.909,-2.9129,-2.9124,-2.9188,-2.9197,-2.9198,-2.9196,-2.9201,-2.9201,-2.9216,-2.9209,-2.9189,-2.9188,-2.9188,-2.9187,0,-2.8924,-2.8922,-2.8993,-2.901,-2.9016,-2.9065,-2.9079,-2.9118,-2.9119,-2.9172,-2.9184,-2.9186,-2.923,-2.9226,-2.9276,-2.9273,-2.9352,-2.9341,-2.9344,-2.9342,-2.9397,-2.9392,-2.9572,-2.9595,-2.9433,-2.9435,-2.9436,0,-2.9003,-2.9049,-2.9072,-2.9098,-2.9112,-2.9155,-2.918,-2.9169,-2.9196,-2.9226,-2.9261,-2.9303,-2.9337,-2.9409,-2.9415,-2.9452,-2.9443,-2.9503,-2.9448,-2.9452,-2.9445,-2.9443,-2.9448,-2.9514,-2.9516,-2.9518,-2.9519,0,-2.9145,-2.9142,-2.918,-2.9217,-2.9248,-2.9276,-2.9302,-2.9325,-2.9317,-2.9348,-2.9394,-2.942,-2.947,-2.9512,-2.9548,-2.9559,-2.9538,-2.9536,-2.955,-2.9556,-2.9557,-2.9558,-2.9375,-2.9532,-2.9531,-2.953,-2.9529,-2.9528,-2.9249,-2.9288,-2.9311,-2.9353,-2.9371,-2.9396,-2.9433,-2.9439,-2.9477,-2.9518,-2.9509,-2.956,-2.9581,-2.9627,-2.9642,-2.9681,-2.9659,-2.968,-2.9686,-2.9692,-2.9698,-2.955,-2.9688,-2.9687,-2.9687,-2.9686,-2.9686,0,-2.9391,-2.9403,-2.9442,-2.948,-2.9513,-2.9489,-2.9517,-2.9546,-2.9592,-2.9613,-2.9647,-2.9699,-2.9739,-2.9748,-2.9786,-2.9816,-2.9807,-2.9827,-2.9825,-2.9828,-2.9715,-2.9699,-2.9833,-2.9833,-2.9833,-2.9833,-2.9833,-2.9833,-2.9468,-2.9534,-2.9533,-2.9608,-2.9619,-2.967,-2.9687,-2.971,-2.9727,-2.9787,-2.9821,-2.9826,-2.9842,-2.9882,-2.9918,-2.9919,-2.9935,-2.9958,-2.9956,-2.9851,-2.9836,-2.9822,-2.9807,-2.9962,-2.9962,-3.0066,-3.0067,-3.0068]},{"header":{"parameterUnit":"m.s-1","parameterCategory":1,"la1":30.2991,"la2":30.254,"lo1":-89.0895,"lo2":-89.0444,"dy":0.0017,"dx":0.0017,"nx":28,"ny":28,"refTime":"2023-11-01T09:00:00:Z","depth":0,"parameterNumber":3,"parameterNumberName":"V-component_of_WINDS"},"data":[0,0,0,0,0,0,0,0,0,0,0,0,0,0,0,0,0,0,0,0,0,0,0,0,0,0,0,0,0,0,0,0,0,0,0,0,0,0,0,0,0,0,0,0,0,0,0,0,0,0,0,0,0,0,0,0,0,0,-8.7375,-8.7376,0,-8.7474,-8.7475,-8.7477,-8.7398,-8.7394,-8.7391,-8.7388,-8.7482,-8.7488,-8.7493,0,0,0,0,0,0,0,0,0,0,0,0,0,-8.711,-8.7115,-8.7375,-8.7376,-8.7377,-8.7474,-8.7475,-8.7477,-8.7398,-8.7394,-8.739,-8.7386,-8.748,-8.7487,-8.7494,0,0,0,0,0,0,0,0,0,0,0,0,0,-8.7218,-8.7117,-8.7375,-8.735,-8.7349,-8.7474,-8.7476,-8.7477,-8.7399,-8.7394,-8.7389,-8.7384,-8.7478,-8.7486,-8.7495,-8.7647,0,0,-8.7521,-8.7524,0,0,0,0,0,0,0,0,-8.7212,-8.7228,-8.7352,-8.7352,-8.7351,-8.7419,-8.7417,-8.7534,-8.74,-8.738,-8.7388,-8.7382,-8.7465,-8.7474,-8.7503,-8.7652,-8.7656,-8.7521,-8.7526,-8.753,-8.7533,0,0,0,0,0,0,0,-8.7205,-8.7223,-8.7414,-8.7354,-8.7353,-8.7332,-8.7341,-8.7438,-8.7449,-8.7381,-8.7376,-8.7389,-8.7463,-8.7495,-8.7505,-8.7657,-8.7521,-8.7529,-8.7534,-8.7537,-8.7935,-8.7941,0,0,0,0,0,0,-8.7201,-8.7218,-8.7411,-8.7417,-8.7268,-8.734,-8.7352,-8.7402,-8.7448,-8.745,-8.7393,-8.7385,-8.7483,-8.7495,-8.7508,-8.769,-8.753,-8.7538,-8.7543,-8.793,-8.7937,-8.7942,0,0,0,0,0,0,-8.7196,-8.7219,-8.7407,-8.7316,-8.7338,-8.735,-8.7407,-8.7406,-8.7439,-8.7457,-8.7457,-8.7425,-8.748,-8.7496,-8.7614,-8.7692,-8.7542,-8.7549,-8.7923,-8.7932,-8.794,-8.8055,0,0,0,0,0,0,-8.7188,-8.7217,-8.7277,-8.7318,-8.7344,-8.7513,-8.7412,-8.7412,-8.7454,-8.7444,-8.7487,-8.7489,-8.7477,-8.7602,-8.7622,-8.7701,-8.7556,-8.7916,-8.7927,-8.7937,-8.8044,-8.8066,-8.8085,0,0,0,0,0,-8.7179,-8.7304,-8.7281,-8.7304,-8.7419,-8.7518,-8.7532,-8.7519,-8.7461,-8.752,-8.7532,-8.7487,-8.768,-8.7614,-8.7637,-8.7719,-8.7911,-8.7924,-8.7936,-8.8035,-8.8062,-8.8084,0,0,0,0,0,0,-8.7269,-8.7309,-8.7283,-8.7426,-8.747,-8.7505,-8.7579,-8.7548,-8.7607,-8.7595,-8.7573,-8.7583,-8.7707,-8.7724,-8.7651,-8.7869,-8.7786,-8.7804,-8.7854,-8.7879,-8.7899,-8.7892,-8.7563,0,0,0,0,0,-8.7306,-8.7386,-8.7415,-8.7538,-8.7561,-8.7567,-8.7609,-8.7595,-8.7639,-8.7656,-8.7676,-8.7718,-8.7788,-8.7834,-8.7899,-8.8046,-8.8054,-8.8114,-8.8134,-8.8151,-8.8166,-8.8245,-8.8272,-8.7983,-8.7983,-8.7983,0,0,-8.7382,-8.7414,-8.7465,-8.7557,-8.7589,-8.767,-8.7583,-8.7672,-8.7731,-8.7668,-8.7782,-8.7798,-8.7843,-8.7976,-8.8036,-8.7995,-8.8247,-8.8167,-8.818,-8.8186,-8.826,-8.8288,-8.8312,-8.7992,-8.799,-8.7989,0,0,-8.7562,-8.7595,-8.7701,-8.7736,-8.7787,-8.779,-8.7815,-8.7856,-8.7865,-8.7979,-8.7934,-8.8003,-8.8124,-8.8158,-8.8191,-8.8386,-8.8347,-8.8407,-8.8513,-8.859,-8.8613,-8.8633,-8.8702,-8.8727,-8.8422,-8.8422,-8.8423,0,-8.765,-8.7773,-8.7759,-8.7852,-8.7894,-8.7844,-8.795,-8.7983,-8.8052,-8.808,-8.8034,-8.8186,-8.8212,-8.8353,-8.84,-8.8429,-8.8456,-8.8402,-8.8611,-8.8631,-8.865,-8.8715,-8.8742,-8.8429,-8.8429,-8.8428,-8.8427,0,-8.7878,-8.7964,-8.8043,-8.8114,-8.8164,-8.8263,-8.8262,-8.8314,-8.8296,-8.8303,-8.8419,-8.8449,-8.852,-8.8552,-8.8534,-8.869,-8.8663,-8.8615,-8.8531,-8.8685,-8.8746,-8.8771,-8.844,-8.8437,-8.8435,-8.8433,0,0,-8.8117,-8.8181,-8.821,-8.8242,-8.8295,-8.836,-8.8456,-8.8528,-8.8573,-8.8621,-8.8701,-8.8805,-8.8761,-8.8798,-8.8783,-8.8851,-8.9003,-8.8794,-8.8794,-8.8832,-8.9177,-8.9214,-8.9243,-8.8978,-8.8983,-8.8986,-8.9173,0,-8.83,-8.8472,-8.8462,-8.8622,-8.87,-8.8654,-8.8738,-8.8778,-8.8787,-8.8853,-8.8862,-8.8937,-8.8872,-8.8895,-8.896,-8.8971,-8.9072,-8.8957,-8.905,-8.9053,-8.9041,-8.9275,-8.9314,-8.9489,-8.9197,-8.9201,-8.9204,0,-8.8537,-8.8598,-8.8766,-8.8808,-8.8841,-8.8917,-8.8982,-8.9047,-8.9091,-8.9092,-8.9136,-8.911,-8.9205,-8.9119,-8.9249,-8.9171,-8.9208,-8.922,-8.9226,-8.9234,-8.9138,-8.929,-8.9545,-8.9571,-8.9242,-8.9239,-8.9236,0,-8.8696,-8.8819,-8.8936,-8.8964,-8.9016,-8.907,-8.9094,-8.9133,-8.9177,-8.9233,-8.9262,-8.9327,-8.9363,-8.9413,-8.9405,-8.9343,-8.9538,-8.9451,-8.9541,-8.9541,-8.9584,-8.9581,-8.9848,-8.9608,-8.9607,-8.9607,-8.9606,0,-8.8901,-8.9006,-8.9008,-8.908,-8.9195,-8.9182,-8.9296,-8.9313,-8.9349,-8.9422,-8.9384,-8.9453,-8.9438,-8.9505,-8.9499,-8.9608,-8.9624,-8.9627,-8.9624,-8.9631,-8.963,-8.9654,-8.9642,-8.9614,-8.9612,-8.9611,-8.961,0,-8.9098,-8.9103,-8.9228,-8.9268,-8.928,-8.9363,-8.9396,-8.9463,-8.9469,-8.9562,-8.9583,-8.9592,-8.967,-8.9667,-8.9754,-8.975,-8.9884,-8.9866,-8.987,-8.9866,-8.9956,-8.9948,-9.0248,-9.0287,-9.0021,-9.0024,-9.0026,0,-8.9229,-8.9309,-8.9359,-8.9406,-8.9434,-8.9511,-8.9556,-8.9546,-8.9594,-8.9651,-8.9711,-8.9786,-8.9845,-8.9971,-8.9984,-9.0051,-9.0035,-9.0136,-9.0044,-9.0049,-9.0037,-9.0032,-9.004,-9.0153,-9.0156,-9.0159,-9.0161,0,-8.9462,-8.9461,-8.9529,-8.96,-8.9656,-8.971,-8.9759,-8.98,-8.9794,-8.985,-8.9931,-8.9977,-9.0068,-9.0142,-9.0206,-9.0227,-9.0193,-9.019,-9.0214,-9.0221,-9.0221,-9.0223,-8.9919,-9.0183,-9.018,-9.0179,-9.0178,-9.0177,-8.963,-8.9699,-8.9745,-8.9823,-8.986,-8.9907,-8.9972,-8.9988,-9.0056,-9.0131,-9.012,-9.021,-9.0251,-9.0334,-9.0361,-9.043,-9.0394,-9.0429,-9.0438,-9.0447,-9.0457,-9.021,-9.0441,-9.044,-9.044,-9.0439,-9.0439,0,-8.986,-8.9888,-8.996,-9.0032,-9.0093,-9.0058,-9.0111,-9.0164,-9.0245,-9.0287,-9.0347,-9.044,-9.0512,-9.0531,-9.06,-9.0651,-9.0637,-9.067,-9.0666,-9.0671,-9.0485,-9.0458,-9.068,-9.068,-9.068,-9.068,-9.068,-9.068,-8.9988,-9.0104,-9.0108,-9.0241,-9.0267,-9.0358,-9.0391,-9.0434,-9.0468,-9.0574,-9.0635,-9.0648,-9.0681,-9.0752,-9.0816,-9.0819,-9.0846,-9.0885,-9.0883,-9.0708,-9.0684,-9.0661,-9.0635,-9.0891,-9.0892,-9.1063,-9.1065,-9.1066]}]]